Weather in Bykovsky

Russia / Sakha (Yakutia) Republic     72°00′16″N   129°06′34″E
temp.,
°C
wind,
m/s
gust,
m/s
humid.,
%
clouds,
%
prec.,
mm/h
press.,
hPa
HPBL,
m
26 july, mon
mon2600:00+4se449077 0.0 100646
03:00+5sse6890100 0.1 100562
06:00+5se569499 0.1 100356
09:00+5se6699100 5.4 100262
12:00+5n129895 0.1 100228
15:00+6nw81294100 0.1 1003116
18:00+4nw71197100 0.0 1005122
21:00+3nnw7998100 0.1 1007165
27 july, tue
tue2700:00+3n6897100 0.2 1009165
03:00+3nne5792100 0.3 1011135
06:00+3nne579191 0.1 1014166
09:00+3nne56897 0.1 1016162
12:00+3ene569015 0.0 1018210
15:00+3ene56907 0.0 1019221
18:00+3ene57891 0.0 1020213
21:00+3ene46884 0.0 1021148
28 july, wed
wed2800:00+3ene45880 0.0 1022101
03:00+3e46911 0.0 1022120
06:00+3e58904 0.0 1023181
09:00+3ese47927 0.0 1024188
12:00+3e57902 0.0 1023185
15:00+4e69882 0.0 1023162
18:00+4e698551 0.0 1023140
21:00+4ese5884100 0.0 1023133
29 july, thu
thu2900:00+3ese448718 0.0 102260
03:00+3ese448799 0.0 102254
06:00+4se458673 0.0 102162
09:00+4se46855 0.0 102083
12:00+5ese45825 0.0 102072
15:00+5ese578299 0.0 101990
18:00+5ese47825 0.0 101885
21:00+4ese33845 0.0 101836
30 july, fri
fri3000:00+4e33855 0.0 101832
03:00+4ese33855 0.0 101830
06:00+4ese57855 0.0 101994
09:00+4ese47865 0.0 1019104
12:00+4e468412 0.0 101989
15:00+4e46835 0.0 101995
18:00+4e45825 0.0 102084
21:00+4ese2284100 0.0 102036